• In Uzbekistan
  • List of Countries
  • For 7 days
  • Water Temperature
  • Satellite Maps
  • Weather Map
  • Weather Widgets
  • user-avatar
    Login

    Hourly Weather Wlora

    Today, 29 June, Thursday

    Time Temperature Precipitation Wind Pressure Humidity
    00:00 +27°C° 0 mm 6 mps 757 mmHg 58%
    01:00 +26°C° 0 mm 7 mps 757 mmHg 59%
    02:00 +27°C° 0 mm 7 mps 757 mmHg 57%
    03:00 +27°C° 0 mm 8 mps 757 mmHg 55%
    04:00 +27°C° 0 mm 8 mps 757 mmHg 53%
    05:00 +28°C° 0 mm 8 mps 757 mmHg 49%
    06:00 +31°C° 0 mm 9 mps 757 mmHg 45%
    07:00 +33°C° 0 mm 9 mps 757 mmHg 41%
    08:00 +34°C° 0 mm 9 mps 757 mmHg 37%
    09:00 +37°C° 0 mm 9 mps 757 mmHg 33%
    10:00 +38°C° 0 mm 10 mps 757 mmHg 29%
    11:00 +38°C° 0 mm 9 mps 757 mmHg 29%
    12:00 +39°C° 0 mm 9 mps 757 mmHg 29%
    13:00 +39°C° 0 mm 9 mps 758 mmHg 29%
    14:00 +38°C° 0 mm 8 mps 757 mmHg 31%
    15:00 +38°C° 0 mm 8 mps 757 mmHg 33%
    16:00 +36°C° 0 mm 7 mps 757 mmHg 36%
    17:00 +34°C° 0 mm 7 mps 758 mmHg 43%
    18:00 +32°C° 0 mm 7 mps 758 mmHg 50%
    19:00 +29°C° 0 mm 7 mps 758 mmHg 58%
    20:00 +29°C° 0 mm 7 mps 758 mmHg 59%
    21:00 +28°C° 0 mm 6 mps 759 mmHg 60%
    22:00 +28°C° 0 mm 6 mps 759 mmHg 62%
    23:00 +27°C° 0 mm 6 mps 759 mmHg 61%

    Tomorrow, 30 June, Friday

    Time Temperature Precipitation Wind Pressure Humidity
    00:00 +27°C° 0 mm 6 mps 759 mmHg 60%
    01:00 +27°C° 0 mm 6 mps 759 mmHg 59%
    02:00 +27°C° 0 mm 6 mps 759 mmHg 57%
    03:00 +27°C° 0 mm 5 mps 759 mmHg 55%
    04:00 +26°C° 0 mm 5 mps 760 mmHg 53%
    05:00 +28°C° 0 mm 5 mps 760 mmHg 49%
    06:00 +30°C° 0 mm 4 mps 760 mmHg 45%
    07:00 +33°C° 0 mm 4 mps 760 mmHg 41%
    08:00 +34°C° 0 mm 4 mps 760 mmHg 38%
    09:00 +36°C° 0 mm 4 mps 760 mmHg 34%
    10:00 +39°C° 0 mm 5 mps 760 mmHg 31%
    11:00 +39°C° 0 mm 5 mps 760 mmHg 30%
    12:00 +40°C° 0 mm 6 mps 760 mmHg 28%
    13:00 +40°C° 0 mm 6 mps 759 mmHg 27%
    14:00 +40°C° 0 mm 6 mps 759 mmHg 28%
    15:00 +40°C° 0 mm 6 mps 759 mmHg 29%
    16:00 +40°C° 0 mm 6 mps 759 mmHg 29%
    17:00 +36°C° 0 mm 6 mps 758 mmHg 37%
    18:00 +34°C° 0 mm 6 mps 758 mmHg 45%
    19:00 +30°C° 0 mm 6 mps 758 mmHg 53%
    20:00 +30°C° 0 mm 6 mps 758 mmHg 51%
    21:00 +30°C° 0 mm 6 mps 759 mmHg 49%
    22:00 +29°C° 0 mm 7 mps 759 mmHg 47%
    23:00 +29°C° 0 mm 7 mps 759 mmHg 45%

    Day after tomorrow, 1 July, Saturday

    Time Temperature Precipitation Wind Pressure Humidity
    00:00 +29°C° 0 mm 7 mps 758 mmHg 44%
    01:00 +29°C° 0 mm 7 mps 758 mmHg 42%
    02:00 +29°C° 0 mm 7 mps 758 mmHg 41%
    03:00 +29°C° 0 mm 6 mps 758 mmHg 39%
    04:00 +29°C° 0 mm 6 mps 758 mmHg 38%
    05:00 +30°C° 0 mm 5 mps 758 mmHg 37%
    06:00 +33°C° 0 mm 4 mps 759 mmHg 36%
    07:00 +34°C° 0 mm 3 mps 759 mmHg 36%
    08:00 +35°C° 0 mm 4 mps 759 mmHg 36%
    09:00 +36°C° 0 mm 4 mps 759 mmHg 37%
    10:00 +37°C° 0 mm 4 mps 759 mmHg 38%
    11:00 +37°C° 0 mm 4 mps 759 mmHg 36%
    12:00 +39°C° 0 mm 5 mps 758 mmHg 34%
    13:00 +40°C° 0 mm 5 mps 758 mmHg 33%
    14:00 +39°C° 0 mm 5 mps 758 mmHg 37%
    15:00 +37°C° 0 mm 5 mps 757 mmHg 40%
    16:00 +36°C° 0 mm 5 mps 757 mmHg 44%
    17:00 +34°C° 0 mm 5 mps 757 mmHg 54%
    18:00 +32°C° 0 mm 5 mps 757 mmHg 64%
    19:00 +28°C° 0 mm 4 mps 757 mmHg 74%
    20:00 +27°C° 0 mm 4 mps 757 mmHg 78%
    21:00 +26°C° 0 mm 4 mps 758 mmHg 81%
    22:00 +25°C° 0 mm 3 mps 758 mmHg 85%
    23:00 +25°C° 0 mm 4 mps 758 mmHg 84%

    2 July, Sunday

    Time Temperature Precipitation Wind Pressure Humidity
    00:00 +25°C° 0 mm 4 mps 758 mmHg 84%
    01:00 +25°C° 0 mm 4 mps 758 mmHg 83%
    02:00 +25°C° 0 mm 5 mps 757 mmHg 83%
    03:00 +25°C° 0 mm 5 mps 757 mmHg 83%
    04:00 +25°C° 0 mm 5 mps 757 mmHg 83%
    05:00 +26°C° 0 mm 5 mps 757 mmHg 74%
    06:00 +28°C° 0 mm 5 mps 757 mmHg 65%
    07:00 +30°C° 0 mm 5 mps 757 mmHg 56%
    08:00 +32°C° 0 mm 5 mps 757 mmHg 51%
    09:00 +33°C° 0 mm 6 mps 757 mmHg 47%
    10:00 +34°C° 0 mm 6 mps 757 mmHg 42%
    11:00 +34°C° 0 mm 7 mps 757 mmHg 41%
    12:00 +34°C° 0 mm 7 mps 757 mmHg 41%
    13:00 +34°C° 0 mm 8 mps 757 mmHg 41%
    14:00 +33°C° 0 mm 8 mps 757 mmHg 42%
    15:00 +33°C° 0 mm 8 mps 756 mmHg 42%
    16:00 +32°C° 0 mm 8 mps 756 mmHg 42%
    17:00 +29°C° 0 mm 7 mps 756 mmHg 48%
    18:00 +28°C° 0 mm 7 mps 757 mmHg 53%
    19:00 +26°C° 0 mm 7 mps 757 mmHg 58%
    20:00 +24°C° 0 mm 6 mps 757 mmHg 63%
    21:00 +23°C° 0 mm 6 mps 757 mmHg 68%
    22:00 +22°C° 0 mm 6 mps 758 mmHg 74%
    23:00 +22°C° 0.1 mm 6 mps 758 mmHg 76%

    3 July, Monday

    Time Temperature Precipitation Wind Pressure Humidity
    00:00 +21°C° 0.1 mm 6 mps 758 mmHg 78%
    01:00 +21°C° 0.1 mm 6 mps 758 mmHg 80%
    02:00 +21°C° 0.1 mm 6 mps 757 mmHg 80%
    03:00 +21°C° 0.1 mm 7 mps 757 mmHg 80%
    04:00 +20°C° 0.1 mm 7 mps 757 mmHg 81%
    05:00 +22°C° 0.1 mm 7 mps 757 mmHg 74%
    06:00 +24°C° 0.1 mm 7 mps 757 mmHg 67%
    07:00 +26°C° 0.1 mm 6 mps 758 mmHg 60%
    08:00 +28°C° 0 mm 6 mps 758 mmHg 53%
    09:00 +29°C° 0 mm 6 mps 757 mmHg 46%
    10:00 +30°C° 0 mm 6 mps 757 mmHg 38%
    11:00 +32°C° 0 mm 7 mps 757 mmHg 38%
    12:00 +32°C° 0 mm 8 mps 757 mmHg 38%
    13:00 +32°C° 0 mm 9 mps 757 mmHg 37%
    14:00 +32°C° 0 mm 10 mps 757 mmHg 39%
    15:00 +31°C° 0 mm 10 mps 757 mmHg 41%
    16:00 +31°C° 0 mm 10 mps 757 mmHg 43%
    17:00 +28°C° 0 mm 10 mps 758 mmHg 50%
    18:00 +27°C° 0 mm 9 mps 758 mmHg 58%
    19:00 +26°C° 0 mm 9 mps 758 mmHg 65%
    20:00 +24°C° 0 mm 8 mps 759 mmHg 69%
    21:00 +23°C° 0 mm 7 mps 759 mmHg 72%
    22:00 +22°C° 0 mm 7 mps 759 mmHg 76%
    23:00 +22°C° 0 mm 6 mps 759 mmHg 73%

    4 July, Tuesday

    Time Temperature Precipitation Wind Pressure Humidity
    00:00 +22°C° 0 mm 6 mps 759 mmHg 71%
    01:00 +21°C° 0 mm 6 mps 759 mmHg 69%
    02:00 +21°C° 0 mm 6 mps 759 mmHg 67%
    03:00 +21°C° 0 mm 6 mps 759 mmHg 65%
    04:00 +20°C° 0 mm 6 mps 759 mmHg 64%
    05:00 +22°C° 0 mm 6 mps 760 mmHg 58%
    06:00 +24°C° 0 mm 6 mps 760 mmHg 53%
    07:00 +27°C° 0 mm 5 mps 760 mmHg 47%
    08:00 +28°C° 0 mm 5 mps 760 mmHg 42%
    09:00 +30°C° 0 mm 5 mps 760 mmHg 36%
    10:00 +33°C° 0 mm 5 mps 760 mmHg 31%
    11:00 +34°C° 0 mm 6 mps 760 mmHg 30%
    12:00 +34°C° 0 mm 7 mps 760 mmHg 29%
    13:00 +35°C° 0 mm 7 mps 760 mmHg 29%
    14:00 +34°C° 0 mm 8 mps 760 mmHg 32%
    15:00 +34°C° 0 mm 8 mps 760 mmHg 34%
    16:00 +34°C° 0 mm 8 mps 760 mmHg 37%
    17:00 +32°C° 0 mm 8 mps 760 mmHg 45%
    18:00 +29°C° 0 mm 8 mps 760 mmHg 53%
    19:00 +27°C° 0 mm 7 mps 760 mmHg 61%
    20:00 +26°C° 0 mm 7 mps 761 mmHg 66%
    21:00 +24°C° 0 mm 6 mps 761 mmHg 70%
    22:00 +23°C° 0 mm 6 mps 761 mmHg 74%
    23:00 +23°C° 0 mm 5 mps 761 mmHg 71%
    Show more